This is the latest recevied weather packets stored in our database for station/object WB5LFS-1. If no packets are shown the sender has not sent any weather packets the latest 10 day(s).
| Time | Temp. | Humidity | Pressure | Rain* | Wind** | Luminosity | Snow |
|---|---|---|---|---|---|---|---|
| 1777853511 | 12.22° C | 48% | 1015.9 hPa | 0 mm | - | - | - |
| 1777852611 | 13.33° C | 47% | 1015.8 hPa | 0 mm | - | - | - |
| 1777851711 | 13.89° C | 44% | 1015.6 hPa | 0 mm | - | - | - |
| 1777850811 | 15° C | 41% | 1015.7 hPa | 0 mm | - | - | - |
| 1777849911 | 15.56° C | 36% | 1015.6 hPa | 0 mm | - | - | - |
| 1777849011 | 16.11° C | 34% | 1015.5 hPa | 0 mm | - | - | - |
| 1777848111 | 16.67° C | 34% | 1015.6 hPa | 0 mm | - | - | - |
| 1777847211 | 17.22° C | 33% | 1015.7 hPa | 0 mm | - | - | - |
| 1777846311 | 17.22° C | 31% | 1015.6 hPa | 0 mm | - | - | - |
| 1777845411 | 17.78° C | 32% | 1015.7 hPa | 0 mm | - | - | - |
| 1777844511 | 17.22° C | 34% | 1015.6 hPa | 0 mm | - | - | - |
| 1777843611 | 17.78° C | 31% | 1015.6 hPa | 0 mm | - | - | - |
| 1777842711 | 17.78° C | 33% | 1015.6 hPa | 0 mm | - | - | - |
| 1777841811 | 17.22° C | 33% | 1015.5 hPa | 0 mm | - | - | - |
| 1777840911 | 17.22° C | 34% | 1015.5 hPa | 0 mm | - | - | - |
| 1777840011 | 17.22° C | 32% | 1015.5 hPa | 0 mm | - | - | - |
| 1777839111 | 17.22° C | 33% | 1015.5 hPa | 0 mm | - | - | - |
| 1777838211 | 17.22° C | 33% | 1015.9 hPa | 0 mm | - | - | - |
| 1777837311 | 17.22° C | 32% | 1015.9 hPa | 0 mm | - | - | - |
| 1777836411 | 17.22° C | 37% | 1016.2 hPa | 0 mm | - | - | - |
| 1777835511 | 16.67° C | 34% | 1016.3 hPa | 0 mm | - | - | - |
| 1777834611 | 16.67° C | 34% | 1016.5 hPa | 0 mm | - | - | - |
| 1777833711 | 16.11° C | 32% | 1016.7 hPa | 0 mm | - | - | - |
| 1777832811 | 15.56° C | 37% | 1016.9 hPa | 0 mm | - | - | - |
| 1777831911 | 15.56° C | 41% | 1016.7 hPa | 0 mm | - | - | - |
* Rain latest hour (hover to see other rain measurements)
** Current wind speed in m/s (hover to see current wind gust speed)